Location: Findlater
(50.7879°N, 105.4015°W)
Time: 02:54:23
(UTC+00:00)

ISS - Visible Passes

Search period start: 24 May 2022 00:00
Search period end: 03 June 2022 00:00
Orbit: 414 x 421 km, 51.6° (Epoch: 24 May)

Date Brightness Start Highest point End Pass type
(mag) Time Alt. Az. Time Alt. Az. Time Alt. Az.
24 May -3.6 05:07:56 10° W 05:11:14 54° SSW 05:12:27 32° SE visible
25 May -3.8 04:19:52 10° WNW 04:23:13 72° SSW 04:25:59 14° ESE visible
25 May -1.9 05:57:03 10° W 05:58:53 19° SW 05:58:53 19° SW visible
26 May -2.7 05:08:44 10° W 05:11:41 29° SSW 05:12:25 26° S visible
27 May -3.1 04:20:32 10° W 04:23:42 40° SSW 04:25:58 16° SE visible
28 May -1.6 05:10:00 10° WSW 05:11:53 14° SW 05:12:26 14° SSW visible
29 May -2.0 04:21:21 10° W 04:23:56 21° SW 04:26:01 13° S visible
